STARLINK-32632, 62262

Orbit data source: Space-Track

STARLINK-32632, 62262 is a payload satellite owned by SpaceX/Seattle (US) in LEO that was launched on Thu, 05 Dec 2024 UTC via an FALCON 9 launch vehicle from the Air Force Western Test Range (AFWTR). Payload-class satellites include a variety of spacecraft equipped with specific instruments for various scientific and technological missions. These include communications satellites like Starlink; space stations such as the ISS; scientific satellites like the Hubble; Earth observation satellites from companies like Planet Labs, Umbra, and HawkEye 360; GPS; miniature CubeSats for education and research; and military/defense satellites.

Loading next visibility...
Identifier
62262, 2024-231V
Orbit
LEO
Last TLE update
2 hours ago
Origin
Manufacturer
SpaceX/Seattle
Mission
Operational Commercial Communications
Bus & Motor
STARLINK V2M, Unknown motor
Mass
730 kg wet, ~700 kg dry
Launch date (UTC)
2024-12-05 (7 months ago)
Launch vehicle
FALCON 9
Launch site
Air Force Western Test Range (AFWTR)
Object type
Payload
Rocket body
Debris
Shape & HBR
Box + 2 Pan, 29 m
Radar Cross Section
33.884 m², Large (>1 m²)

Expand to show TLE details & history

TLE from 2 hours ago
0 STARLINK-32632
1 62262U 24231V   25190.23987186  .00014732  00000-0  50834-3 0  9991
2 62262  53.1577 270.5366 0001097  83.4212 276.6914 15.30211802 34458
Epoch: 2025-07-09T05:45Z
TLE epoch observation values (Epoch: 2025-07-09T05:45:24.928Z)
Latitude
-0°
Longitude
-103.24062°
Altitude
475.992 km
Speed
7.629 km/s
True Right ascension
18h 02m 08s
True Declination
0° 00' 00"
Sunlit
Object was in full shadow at epoch
Visualization orbit readout
Latitude
25.37211°
Longitude
-82.87846°
Altitude
475.734 km
Speed
7.632 km/s
Apparent Right ascension
18h 32m 48s
Apparent Declination
-40° 40' 05"
Sunlit
Object is in full shadow
Visualization observer readout
Local Sidereal Time
19:37:22
Azimuth
192.298° SSW
Elevation
8.086°
Doppler factor
1
Orbital elements
Apogee altitude
476.188 km
Perigee altitude
474.685 km
Semi-major axis
6,853.574 km
Eccentricity
0.00011
Inclination
53.1577°
RAAN
270.5366°
Arg. of periapsis
83.4212°
True anomaly
Unknown
Mean anomaly
276.6914°
Eccentric anomaly
Unknown
Mean motion
3.82532 °/min
Orbital period
94.11 mins
BSTAR
0.00050834
Loading maneuver chart data...
Loading SW <> Apogee altitude chart data...
Loading historical data...
Loading historical data...
Loading historical data...
Loading historical data...
Loading historical data...
Loading historical data...
Loading historical data...

STARLINK-32632 Visibility forecast

Observer location: undefined°, undefined°

Span
Click to sort rows by Start time (UTC) header in descending order
Start Az.
Max El. time (UTC)
Max El. Az.
Max El.
End time (UTC)
End Az.
5 mins2025-07-09 07:28:52.398Z183.546° SSW2025-07-09 07:31:52.398Z117.342° SE23.298°2025-07-09 07:33:52.398Z78.958° E
5 mins2025-07-09 09:06:52.398Z266.564° W2025-07-09 09:08:52.398Z313.554° NW30.787°2025-07-09 09:11:52.398Z31.412° NE
4 mins2025-07-09 14:04:52.398Z354.841° N2025-07-09 14:05:52.398Z21.611° NNE24.908°2025-07-09 14:08:52.398Z86.209° E
5 mins2025-07-09 15:41:52.398Z287.403° WNW2025-07-09 15:43:52.398Z236.637° WSW32.549°2025-07-09 15:46:52.398Z160.016° S
|